Private Wetterstation Wechselburg
Wetterdaten: Donnerstag, 01.09.2016
Datum Zeit Temp. +2m Bodentemp. Temp.+5cm Temp. Wind Windchill X Diff Temp. Feuchte +2m Feuchte +5cm Sonnenschein Luftdruck Regen Wind Richtung Richtung Sonnenschein Taupunkt Windchill Windben
01.09.2016 00:00 13,1 C 22,6 C 13,9 C 12,8 C 12,1 C 0,0 C 76 % 78 % 0 % 1020,2 hPa 0,0 l/m 0,0 km/h (0 Bft) O-NO 67 0 min 9,0 C 12,1 C 0,0 km/h (0 Bft)
01.09.2016 00:05 13,0 C 22,6 C 13,9 C 12,7 C 12,0 C 0,0 C 75 % 78 % 0 % 1020,0 hPa 0,0 l/m 0,0 km/h (0 Bft) O-NO 67 0 min 8,7 C 12,0 C 0,0 km/h (0 Bft)
01.09.2016 00:11 12,7 C 22,6 C 13,7 C 12,4 C 11,7 C 0,0 C 76 % 78 % 0 % 1020,0 hPa 0,0 l/m 0,0 km/h (0 Bft) N 0 0 min 8,6 C 11,7 C 0,0 km/h (0 Bft)
01.09.2016 00:20 12,6 C 22,6 C 13,6 C 12,3 C 11,6 C 0,0 C 76 % 78 % 0 % 1020,0 hPa 0,0 l/m 0,0 km/h (0 Bft) O-NO 67 0 min 8,5 C 11,6 C 0,0 km/h (0 Bft)
01.09.2016 00:25 12,5 C 22,6 C 13,6 C 12,2 C 11,5 C 0,0 C 76 % 78 % 0 % 1019,9 hPa 0,0 l/m 0,0 km/h (0 Bft) O-NO 67 0 min 8,4 C 11,5 C 0,0 km/h (0 Bft)
01.09.2016 00:30 12,4 C 22,6 C 13,5 C 12,1 C 11,4 C 0,0 C 77 % 78 % 0 % 1019,9 hPa 0,0 l/m 0,0 km/h (0 Bft) O-NO 67 0 min 8,5 C 11,4 C 0,0 km/h (0 Bft)
01.09.2016 00:35 12,3 C 22,6 C 13,4 C 12,0 C 11,4 C 0,0 C 77 % 79 % 0 % 1019,9 hPa 0,0 l/m 0,0 km/h (0 Bft) O-NO 67 0 min 8,4 C 11,4 C 0,0 km/h (0 Bft)
01.09.2016 00:40 12,2 C 22,6 C 13,4 C 11,9 C 11,3 C 0,0 C 77 % 79 % 0 % 1019,9 hPa 0,0 l/m 0,0 km/h (0 Bft) O-NO 67 0 min 8,3 C 11,3 C 0,0 km/h (0 Bft)
01.09.2016 00:45 12,1 C 22,6 C 13,2 C 11,8 C 11,2 C 0,0 C 77 % 80 % 0 % 1020,1 hPa 0,0 l/m 0,0 km/h (0 Bft) O-NO 67 0 min 8,2 C 11,2 C 0,0 km/h (0 Bft)
01.09.2016 00:50 12,0 C 22,6 C 13,2 C 11,7 C 11,2 C 0,0 C 78 % 80 % 0 % 1020,1 hPa 0,0 l/m 0,0 km/h (0 Bft) O-NO 67 0 min 8,3 C 11,2 C 0,0 km/h (0 Bft)
01.09.2016 00:55 12,0 C 22,6 C 13,1 C 11,7 C 11,2 C 0,0 C 78 % 80 % 0 % 1020,1 hPa 0,0 l/m 0,0 km/h (0 Bft) O-NO 67 0 min 8,3 C 11,2 C 0,0 km/h (0 Bft)
01.09.2016 01:00 11,9 C 22,6 C 13,1 C 11,6 C 11,1 C 0,0 C 78 % 80 % 0 % 1020,1 hPa 0,0 l/m 0,0 km/h (0 Bft) O-NO 67 0 min 8,2 C 11,1 C 0,0 km/h (0 Bft)
01.09.2016 01:05 11,8 C 22,5 C 13,1 C 11,5 C 11,0 C 0,0 C 78 % 80 % 0 % 1020,0 hPa 0,0 l/m 0,0 km/h (0 Bft) O-NO 67 0 min 8,1 C 11,0 C 0,0 km/h (0 Bft)
01.09.2016 01:10 11,7 C 22,6 C 13,1 C 11,4 C 10,9 C 0,0 C 78 % 80 % 0 % 1020,0 hPa 0,0 l/m 0,0 km/h (0 Bft) O-NO 67 0 min 8,0 C 10,9 C 0,0 km/h (0 Bft)
01.09.2016 01:15 11,6 C 22,6 C 12,8 C 11,3 C 10,8 C 0,0 C 79 % 81 % 0 % 1020,0 hPa 0,0 l/m 0,0 km/h (0 Bft) O-NO 67 0 min 8,1 C 10,8 C 0,0 km/h (0 Bft)
01.09.2016 01:20 11,5 C 22,6 C 12,8 C 11,3 C 10,8 C 0,0 C 79 % 81 % 0 % 1020,0 hPa 0,0 l/m 0,0 km/h (0 Bft) O-NO 67 0 min 8,0 C 10,8 C 0,0 km/h (0 Bft)
01.09.2016 01:25 11,4 C 22,6 C 12,8 C 11,2 C 10,8 C 0,0 C 80 % 81 % 0 % 1020,1 hPa 0,0 l/m 0,0 km/h (0 Bft) O-NO 67 0 min 8,1 C 10,8 C 0,0 km/h (0 Bft)
01.09.2016 01:30 11,3 C 22,6 C 12,7 C 11,2 C 11,0 C 0,0 C 80 % 81 % 0 % 1020,1 hPa 0,0 l/m 0,5 km/h (0 Bft) O-NO 67 0 min 8,0 C 11,0 C 0,0 km/h (0 Bft)
01.09.2016 01:35 11,3 C 22,5 C 12,7 C 11,2 C 11,1 C 0,0 C 80 % 81 % 0 % 1020,1 hPa 0,0 l/m 0,5 km/h (0 Bft) O-NO 67 0 min 8,0 C 11,1 C 2,1 km/h (1 Bft)
01.09.2016 01:40 11,2 C 22,5 C 12,7 C 11,1 C 11,0 C 0,0 C 80 % 82 % 0 % 1020,1 hPa 0,0 l/m 0,0 km/h (0 Bft) O-NO 67 0 min 7,9 C 11,0 C 0,0 km/h (0 Bft)
01.09.2016 01:45 11,2 C 22,5 C 12,5 C 11,1 C 10,8 C 0,0 C 80 % 82 % 0 % 1020,1 hPa 0,0 l/m 0,0 km/h (0 Bft) O-NO 67 0 min 7,9 C 10,8 C 0,0 km/h (0 Bft)
01.09.2016 01:50 11,1 C 22,5 C 12,4 C 10,9 C 10,6 C 0,0 C 80 % 82 % 0 % 1020,1 hPa 0,0 l/m 0,0 km/h (0 Bft) O-NO 67 0 min 7,8 C 10,6 C 0,0 km/h (0 Bft)
01.09.2016 01:55 11,1 C 22,5 C 12,3 C 10,9 C 10,4 C 0,0 C 80 % 82 % 0 % 1020,1 hPa 0,0 l/m 0,0 km/h (0 Bft) O-NO 67 0 min 7,8 C 10,4 C 0,0 km/h (0 Bft)
01.09.2016 02:00 10,9 C 22,5 C 12,3 C 10,7 C 10,3 C 0,0 C 80 % 82 % 0 % 1020,1 hPa 0,0 l/m 0,0 km/h (0 Bft) O-NO 67 0 min 7,6 C 10,3 C 0,0 km/h (0 Bft)
01.09.2016 02:05 10,9 C 22,5 C 12,3 C 10,7 C 10,2 C 0,0 C 80 % 82 % 0 % 1020,1 hPa 0,0 l/m 0,0 km/h (0 Bft) O-NO 67 0 min 7,6 C 10,2 C 0,0 km/h (0 Bft)
01.09.2016 02:12 10,7 C 22,5 C 12,1 C 10,5 C 10,2 C 0,0 C 80 % 83 % 0 % 1020,1 hPa 0,0 l/m 0,0 km/h (0 Bft) N 0 0 min 7,4 C 10,2 C 0,0 km/h (0 Bft)
01.09.2016 02:20 10,5 C 22,5 C 12,1 C 10,4 C 10,1 C 0,0 C 81 % 83 % 0 % 1020,1 hPa 0,0 l/m 0,0 km/h (0 Bft) O-NO 67 0 min 7,4 C 10,1 C 0,0 km/h (0 Bft)
01.09.2016 02:25 10,4 C 22,4 C 12,0 C 10,3 C 10,0 C 0,0 C 81 % 83 % 0 % 1020,2 hPa 0,0 l/m 0,0 km/h (0 Bft) O-NO 67 0 min 7,3 C 10,0 C 0,0 km/h (0 Bft)
01.09.2016 02:30 10,5 C 22,5 C 12,0 C 10,3 C 9,9 C 0,0 C 81 % 83 % 0 % 1020,2 hPa 0,0 l/m 0,0 km/h (0 Bft) O-NO 67 0 min 7,4 C 9,9 C 0,0 km/h (0 Bft)
01.09.2016 02:35 10,3 C 22,5 C 11,8 C 10,2 C 9,9 C 0,0 C 81 % 83 % 0 % 1020,2 hPa 0,0 l/m 0,0 km/h (0 Bft) O-NO 67 0 min 7,2 C 9,9 C 0,0 km/h (0 Bft)
01.09.2016 02:40 10,3 C 22,5 C 11,8 C 10,2 C 9,9 C 0,0 C 81 % 83 % 0 % 1020,2 hPa 0,0 l/m 0,0 km/h (0 Bft) O-NO 67 0 min 7,2 C 9,9 C 0,0 km/h (0 Bft)
01.09.2016 02:45 10,1 C 22,5 C 11,9 C 10,0 C 9,8 C 0,0 C 81 % 84 % 0 % 1019,9 hPa 0,0 l/m 0,0 km/h (0 Bft) O-NO 67 0 min 7,0 C 9,8 C 0,0 km/h (0 Bft)
01.09.2016 02:50 10,0 C 22,5 C 11,9 C 9,9 C 9,7 C 0,0 C 81 % 84 % 0 % 1019,9 hPa 0,0 l/m 0,0 km/h (0 Bft) O-NO 67 0 min 6,9 C 9,7 C 0,0 km/h (0 Bft)
01.09.2016 02:55 10,0 C 22,5 C 11,9 C 9,8 C 9,5 C 0,0 C 81 % 84 % 0 % 1019,9 hPa 0,0 l/m 0,0 km/h (0 Bft) O-NO 67 0 min 6,9 C 9,5 C 0,0 km/h (0 Bft)
01.09.2016 03:00 9,9 C 22,6 C 11,6 C 9,8 C 9,5 C 0,0 C 81 % 84 % 0 % 1019,9 hPa 0,0 l/m 0,0 km/h (0 Bft) O-NO 67 0 min 6,8 C 9,5 C 0,0 km/h (0 Bft)
01.09.2016 03:05 9,9 C 22,5 C 11,6 C 9,8 C 9,5 C 0,0 C 82 % 84 % 0 % 1019,8 hPa 0,0 l/m 0,0 km/h (0 Bft) NO 45 0 min 7,0 C 9,5 C 0,0 km/h (0 Bft)
01.09.2016 03:10 9,8 C 22,5 C 11,6 C 9,7 C 9,5 C 0,0 C 82 % 84 % 0 % 1019,8 hPa 0,0 l/m 0,0 km/h (0 Bft) SO 135 0 min 6,9 C 9,5 C 0,0 km/h (0 Bft)
01.09.2016 03:15 9,7 C 22,5 C 11,5 C 9,6 C 9,5 C 0,0 C 82 % 84 % 0 % 1019,8 hPa 0,0 l/m 0,0 km/h (0 Bft) O-SO 112 0 min 6,8 C 9,5 C 0,0 km/h (0 Bft)
01.09.2016 03:20 9,6 C 22,5 C 11,6 C 9,6 C 9,5 C 0,0 C 82 % 84 % 0 % 1019,8 hPa 0,0 l/m 0,0 km/h (0 Bft) O-SO 112 0 min 6,7 C 9,5 C 0,0 km/h (0 Bft)
01.09.2016 03:25 9,7 C 22,5 C 11,6 C 9,6 C 9,5 C 0,0 C 82 % 84 % 0 % 1020,0 hPa 0,0 l/m 0,0 km/h (0 Bft) O-SO 112 0 min 6,8 C 9,5 C 0,0 km/h (0 Bft)
01.09.2016 03:30 9,5 C 22,5 C 11,5 C 9,5 C 9,5 C 0,0 C 82 % 84 % 0 % 1020,0 hPa 0,0 l/m 0,0 km/h (0 Bft) N-NO 22 0 min 6,6 C 9,5 C 0,0 km/h (0 Bft)
01.09.2016 03:35 9,5 C 22,5 C 11,5 C 9,5 C 9,4 C 0,0 C 82 % 84 % 0 % 1020,0 hPa 0,0 l/m 0,0 km/h (0 Bft) SW 225 0 min 6,6 C 9,4 C 0,0 km/h (0 Bft)
01.09.2016 03:40 9,4 C 22,4 C 11,5 C 9,4 C 9,4 C 0,0 C 82 % 84 % 0 % 1020,0 hPa 0,0 l/m 0,0 km/h (0 Bft) W-SW 247 0 min 6,5 C 9,4 C 0,0 km/h (0 Bft)
01.09.2016 03:45 9,3 C 22,4 C 11,5 C 9,3 C 9,3 C 0,0 C 82 % 85 % 0 % 1020,1 hPa 0,0 l/m 0,0 km/h (0 Bft) SW 225 0 min 6,4 C 9,3 C 0,0 km/h (0 Bft)
01.09.2016 03:50 9,3 C 22,4 C 11,4 C 9,3 C 9,3 C 0,0 C 82 % 85 % 0 % 1020,1 hPa 0,0 l/m 0,0 km/h (0 Bft) SW 225 0 min 6,4 C 9,3 C 0,0 km/h (0 Bft)
01.09.2016 03:55 9,3 C 22,5 C 11,4 C 9,3 C 9,3 C 0,0 C 82 % 85 % 0 % 1020,1 hPa 0,0 l/m 0,0 km/h (0 Bft) SW 225 0 min 6,4 C 9,3 C 0,0 km/h (0 Bft)
01.09.2016 04:00 9,2 C 22,4 C 11,3 C 9,3 C 9,3 C 0,1 C 82 % 85 % 0 % 1020,1 hPa 0,0 l/m 0,0 km/h (0 Bft) W-SW 247 0 min 6,3 C 9,3 C 0,0 km/h (0 Bft)
01.09.2016 04:05 9,2 C 22,4 C 11,2 C 9,3 C 9,3 C 0,1 C 82 % 85 % 0 % 1020,2 hPa 0,0 l/m 0,0 km/h (0 Bft) W-SW 247 0 min 6,3 C 9,3 C 0,0 km/h (0 Bft)
01.09.2016 04:12 9,0 C 22,4 C 11,1 C 9,1 C 9,1 C 0,1 C 83 % 85 % 0 % 1020,2 hPa 0,0 l/m 0,0 km/h (0 Bft) N 0 0 min 6,3 C 9,1 C 0,0 km/h (0 Bft)
01.09.2016 04:20 9,1 C 22,4 C 11,1 C 9,1 C 9,1 C 0,0 C 83 % 85 % 0 % 1020,2 hPa 0,0 l/m 0,0 km/h (0 Bft) SO 135 0 min 6,4 C 9,1 C 0,0 km/h (0 Bft)
01.09.2016 04:25 9,0 C 22,4 C 11,1 C 9,0 C 9,0 C 0,0 C 83 % 85 % 0 % 1020,2 hPa 0,0 l/m 0,0 km/h (0 Bft) S-SO 157 0 min 6,3 C 9,0 C 0,0 km/h (0 Bft)
01.09.2016 04:30 8,9 C 22,3 C 11,0 C 9,0 C 9,0 C 0,1 C 83 % 85 % 0 % 1020,2 hPa 0,0 l/m 0,0 km/h (0 Bft) S-SO 157 0 min 6,2 C 9,0 C 0,0 km/h (0 Bft)
01.09.2016 04:35 8,8 C 22,3 C 11,0 C 9,0 C 9,0 C 0,2 C 83 % 85 % 0 % 1020,2 hPa 0,0 l/m 0,0 km/h (0 Bft) W 270 0 min 6,1 C 9,0 C 0,0 km/h (0 Bft)
01.09.2016 04:40 8,8 C 22,3 C 10,9 C 8,9 C 8,9 C 0,1 C 83 % 85 % 0 % 1020,2 hPa 0,0 l/m 0,0 km/h (0 Bft) W 270 0 min 6,1 C 8,9 C 0,0 km/h (0 Bft)
01.09.2016 04:45 8,8 C 22,4 C 10,9 C 8,9 C 8,9 C 0,1 C 83 % 85 % 0 % 1020,1 hPa 0,0 l/m 0,0 km/h (0 Bft) W 270 0 min 6,1 C 8,9 C 0,0 km/h (0 Bft)
01.09.2016 04:50 8,8 C 22,4 C 10,8 C 8,9 C 8,9 C 0,1 C 83 % 86 % 0 % 1020,1 hPa 0,0 l/m 0,0 km/h (0 Bft) SO 135 0 min 6,1 C 8,9 C 0,0 km/h (0 Bft)
01.09.2016 04:55 8,8 C 22,4 C 10,9 C 9,0 C 9,0 C 0,2 C 84 % 86 % 0 % 1020,1 hPa 0,0 l/m 0,0 km/h (0 Bft) O-NO 67 0 min 6,2 C 9,0 C 0,0 km/h (0 Bft)
01.09.2016 05:00 8,7 C 22,3 C 10,9 C 8,9 C 8,9 C 0,2 C 84 % 86 % 0 % 1020,1 hPa 0,0 l/m 0,0 km/h (0 Bft) O-NO 67 0 min 6,2 C 8,9 C 0,0 km/h (0 Bft)
01.09.2016 05:05 8,7 C 22,3 C 10,9 C 9,0 C 9,0 C 0,3 C 84 % 86 % 0 % 1020,1 hPa 0,0 l/m 0,0 km/h (0 Bft) N-NO 22 0 min 6,2 C 9,0 C 0,0 km/h (0 Bft)
01.09.2016 05:10 8,6 C 22,3 C 10,8 C 9,0 C 9,0 C 0,4 C 84 % 86 % 0 % 1020,1 hPa 0,0 l/m 0,0 km/h (0 Bft) O-NO 67 0 min 6,1 C 9,0 C 0,0 km/h (0 Bft)
01.09.2016 05:15 8,6 C 22,3 C 10,8 C 9,0 C 9,0 C 0,4 C 84 % 86 % 0 % 1020,1 hPa 0,0 l/m 0,0 km/h (0 Bft) O-NO 67 0 min 6,1 C 9,0 C 0,0 km/h (0 Bft)
01.09.2016 05:20 8,7 C 22,2 C 10,8 C 9,0 C 9,0 C 0,3 C 84 % 86 % 0 % 1020,1 hPa 0,0 l/m 0,0 km/h (0 Bft) O-NO 67 0 min 6,2 C 9,0 C 0,0 km/h (0 Bft)
01.09.2016 05:25 8,7 C 22,3 C 10,8 C 8,9 C 8,9 C 0,2 C 84 % 86 % 0 % 1020,2 hPa 0,0 l/m 0,0 km/h (0 Bft) W-SW 247 0 min 6,2 C 8,9 C 0,0 km/h (0 Bft)
01.09.2016 05:30 8,6 C 22,2 C 10,7 C 8,8 C 8,8 C 0,2 C 84 % 86 % 0 % 1020,2 hPa 0,0 l/m 0,0 km/h (0 Bft) W-SW 247 0 min 6,1 C 8,8 C 0,0 km/h (0 Bft)
01.09.2016 05:35 8,5 C 22,2 C 10,6 C 8,8 C 8,8 C 0,3 C 84 % 86 % 0 % 1020,2 hPa 0,0 l/m 0,0 km/h (0 Bft) W 270 0 min 6,0 C 8,8 C 0,0 km/h (0 Bft)
01.09.2016 05:40 8,5 C 22,3 C 10,7 C 8,8 C 8,8 C 0,3 C 84 % 86 % 0 % 1020,2 hPa 0,0 l/m 0,0 km/h (0 Bft) O-NO 67 0 min 6,0 C 8,8 C 0,0 km/h (0 Bft)
01.09.2016 05:45 8,5 C 22,2 C 10,6 C 9,0 C 9,0 C 0,5 C 84 % 86 % 0 % 1020,1 hPa 0,0 l/m 0,0 km/h (0 Bft) NO 45 0 min 6,0 C 9,0 C 0,0 km/h (0 Bft)
01.09.2016 05:50 8,6 C 22,2 C 10,7 C 9,0 C 9,0 C 0,4 C 85 % 86 % 0 % 1020,1 hPa 0,0 l/m 0,2 km/h (0 Bft) W-SW 247 0 min 6,2 C 9,0 C 0,0 km/h (0 Bft)
01.09.2016 05:55 8,7 C 22,2 C 10,6 C 9,0 C 9,0 C 0,3 C 85 % 86 % 0 % 1020,1 hPa 0,0 l/m 0,2 km/h (0 Bft) W 270 0 min 6,3 C 9,0 C 2,3 km/h (1 Bft)
01.09.2016 06:00 8,7 C 22,2 C 10,6 C 9,0 C 9,0 C 0,3 C 85 % 86 % 0 % 1020,1 hPa 0,0 l/m 0,2 km/h (0 Bft) O-NO 67 0 min 6,3 C 9,0 C 1,9 km/h (1 Bft)
01.09.2016 06:05 8,6 C 22,2 C 10,7 C 9,0 C 9,0 C 0,4 C 85 % 86 % 0 % 1020,2 hPa 0,0 l/m 0,5 km/h (0 Bft) O-NO 67 0 min 6,2 C 9,0 C 2,6 km/h (1 Bft)
01.09.2016 06:12 8,5 C 22,2 C 10,6 C 9,0 C 9,0 C 0,5 C 85 % 86 % 0 % 1020,2 hPa 0,0 l/m 0,3 km/h (0 Bft) N 0 0 min 6,1 C 9,0 C 0,0 km/h (0 Bft)
01.09.2016 06:20 8,5 C 22,1 C 10,6 C 8,9 C 8,9 C 0,4 C 85 % 86 % 0 % 1020,2 hPa 0,0 l/m 0,0 km/h (0 Bft) W 270 0 min 6,1 C 8,9 C 0,0 km/h (0 Bft)
01.09.2016 06:25 8,4 C 22,1 C 10,5 C 8,8 C 8,8 C 0,4 C 85 % 86 % 0 % 1020,2 hPa 0,0 l/m 0,0 km/h (0 Bft) W 270 0 min 6,0 C 8,8 C 0,0 km/h (0 Bft)
01.09.2016 06:30 8,5 C 22,1 C 10,5 C 8,7 C 8,7 C 0,2 C 85 % 86 % 0 % 1020,2 hPa 0,0 l/m 0,0 km/h (0 Bft) W 270 0 min 6,1 C 8,7 C 0,0 km/h (0 Bft)
01.09.2016 06:35 8,4 C 22,1 C 10,5 C 8,8 C 8,8 C 0,4 C 85 % 86 % 11 % 1020,2 hPa 0,0 l/m 0,0 km/h (0 Bft) O-NO 67 5 min 6,0 C 8,8 C 0,0 km/h (0 Bft)
01.09.2016 06:40 8,4 C 22,1 C 10,5 C 8,9 C 8,9 C 0,5 C 85 % 86 % 13 % 1020,2 hPa 0,0 l/m 0,0 km/h (0 Bft) O-NO 67 5 min 6,0 C 8,9 C 0,0 km/h (0 Bft)
01.09.2016 06:45 8,5 C 22,1 C 10,5 C 9,0 C 9,0 C 0,5 C 85 % 87 % 13 % 1020,1 hPa 0,0 l/m 0,0 km/h (0 Bft) O-NO 67 5 min 6,1 C 9,0 C 0,0 km/h (0 Bft)
01.09.2016 06:50 8,6 C 22,1 C 10,6 C 9,3 C 9,3 C 0,7 C 85 % 87 % 18 % 1020,1 hPa 0,0 l/m 0,0 km/h (0 Bft) O-NO 67 5 min 6,2 C 9,3 C 0,0 km/h (0 Bft)
01.09.2016 06:55 8,7 C 22,1 C 10,6 C 9,4 C 9,4 C 0,7 C 86 % 87 % 18 % 1020,1 hPa 0,0 l/m 0,0 km/h (0 Bft) O-NO 67 0 min 6,5 C 9,4 C 0,0 km/h (0 Bft)
01.09.2016 07:00 8,7 C 22,0 C 10,7 C 9,3 C 9,3 C 0,6 C 86 % 87 % 16 % 1020,1 hPa 0,0 l/m 0,0 km/h (0 Bft) S-SW 202 0 min 6,5 C 9,3 C 0,0 km/h (0 Bft)
01.09.2016 07:05 8,7 C 22,0 C 10,7 C 9,5 C 9,5 C 0,8 C 86 % 87 % 21 % 1020,2 hPa 0,0 l/m 0,0 km/h (0 Bft) W 270 0 min 6,5 C 9,5 C 0,0 km/h (0 Bft)
01.09.2016 07:10 8,7 C 22,0 C 10,8 C 9,7 C 9,7 C 1,0 C 86 % 87 % 26 % 1020,2 hPa 0,0 l/m 0,0 km/h (0 Bft) W-SW 247 0 min 6,5 C 9,7 C 0,0 km/h (0 Bft)
01.09.2016 07:15 9,1 C 22,0 C 10,9 C 11,4 C 11,4 C 2,3 C 86 % 87 % 61 % 1020,2 hPa 0,0 l/m 0,0 km/h (0 Bft) O-NO 67 5 min 6,9 C 11,4 C 0,0 km/h (0 Bft)
01.09.2016 07:20 9,2 C 22,0 C 11,1 C 12,7 C 12,7 C 3,5 C 87 % 87 % 92 % 1020,2 hPa 0,0 l/m 0,0 km/h (0 Bft) NW 315 5 min 7,2 C 12,7 C 0,0 km/h (0 Bft)
01.09.2016 07:25 9,7 C 21,9 C 11,5 C 14,3 C 14,3 C 4,6 C 87 % 87 % 100 % 1020,2 hPa 0,0 l/m 0,0 km/h (0 Bft) O-NO 67 5 min 7,6 C 14,3 C 0,0 km/h (0 Bft)
01.09.2016 07:30 10,2 C 21,9 C 11,7 C 15,4 C 15,4 C 5,2 C 88 % 87 % 100 % 1020,2 hPa 0,0 l/m 0,0 km/h (0 Bft) O-NO 67 5 min 8,3 C 15,4 C 0,0 km/h (0 Bft)
01.09.2016 07:35 10,3 C 21,9 C 11,9 C 16,6 C 16,6 C 6,3 C 87 % 86 % 100 % 1020,2 hPa 0,0 l/m 0,0 km/h (0 Bft) O-NO 67 5 min 8,2 C 16,6 C 0,0 km/h (0 Bft)
01.09.2016 07:40 10,8 C 21,9 C 12,1 C 17,1 C 17,1 C 6,3 C 87 % 86 % 100 % 1020,2 hPa 0,0 l/m 0,5 km/h (0 Bft) O-NO 67 5 min 8,7 C 17,1 C 2,9 km/h (1 Bft)
01.09.2016 07:45 11,1 C 21,8 C 12,7 C 17,2 C 17,2 C 6,1 C 86 % 86 % 100 % 1020,6 hPa 0,0 l/m 1,1 km/h (1 Bft) S-SO 157 5 min 8,8 C 17,2 C 0,0 km/h (0 Bft)
01.09.2016 07:50 11,4 C 21,9 C 12,8 C 18,1 C 18,1 C 6,7 C 86 % 85 % 100 % 1020,6 hPa 0,0 l/m 0,8 km/h (0 Bft) O-NO 67 5 min 9,1 C 18,1 C 0,0 km/h (0 Bft)
01.09.2016 07:55 12,1 C 21,8 C 13,3 C 19,6 C 19,6 C 7,5 C 85 % 85 % 100 % 1020,6 hPa 0,0 l/m 0,0 km/h (0 Bft) N-NO 22 5 min 9,7 C 19,6 C 0,0 km/h (0 Bft)
01.09.2016 08:00 12,3 C 21,8 C 13,5 C 20,9 C 20,9 C 8,6 C 84 % 85 % 100 % 1020,6 hPa 0,0 l/m 0,0 km/h (0 Bft) S 180 5 min 9,7 C 20,9 C 0,0 km/h (0 Bft)
01.09.2016 08:05 12,7 C 21,8 C 13,3 C 22,7 C 22,7 C 10,0 C 83 % 84 % 100 % 1020,6 hPa 0,0 l/m 0,0 km/h (0 Bft) W-SW 247 5 min 9,9 C 22,7 C 0,0 km/h (0 Bft)
01.09.2016 08:12 13,9 C 21,7 C 13,3 C 24,0 C 24,0 C 10,1 C 81 % 83 % 100 % 1020,6 hPa 0,0 l/m 0,0 km/h (0 Bft) N 0 7 min 10,7 C 24,0 C 0,0 km/h (0 Bft)
01.09.2016 08:20 14,1 C 21,7 C 13,4 C 24,4 C 24,4 C 10,3 C 80 % 83 % 100 % 1020,6 hPa 0,0 l/m 0,0 km/h (0 Bft) SW 225 8 min 10,7 C 24,4 C 0,0 km/h (0 Bft)
01.09.2016 08:25 14,9 C 21,7 C 13,6 C 24,9 C 24,9 C 10,0 C 79 % 83 % 100 % 1020,6 hPa 0,0 l/m 0,0 km/h (0 Bft) SW 225 5 min 11,3 C 24,9 C 0,0 km/h (0 Bft)
01.09.2016 08:30 15,3 C 21,6 C 13,7 C 25,7 C 25,7 C 10,4 C 78 % 83 % 100 % 1020,6 hPa 0,0 l/m 0,0 km/h (0 Bft) W-SW 247 5 min 11,5 C 25,7 C 0,0 km/h (0 Bft)
01.09.2016 08:35 15,9 C 21,5 C 14,0 C 26,3 C 26,3 C 10,4 C 77 % 83 % 100 % 1020,6 hPa 0,0 l/m 0,0 km/h (0 Bft) W 270 5 min 11,9 C 26,3 C 0,0 km/h (0 Bft)
01.09.2016 08:40 16,0 C 21,5 C 14,1 C 26,2 C 26,2 C 10,2 C 77 % 83 % 100 % 1020,6 hPa 0,0 l/m 0,0 km/h (0 Bft) W-SW 247 5 min 12,0 C 26,2 C 2,3 km/h (1 Bft)
01.09.2016 08:45 16,5 C 21,6 C 14,3 C 26,1 C 26,1 C 9,6 C 76 % 83 % 100 % 1020,9 hPa 0,0 l/m 0,2 km/h (0 Bft) O-NO 67 5 min 12,3 C 26,1 C 1,6 km/h (1 Bft)
01.09.2016 08:50 17,2 C 21,5 C 14,4 C 25,7 C 25,7 C 8,5 C 75 % 83 % 100 % 1020,9 hPa 0,0 l/m 0,2 km/h (0 Bft) SW 225 5 min 12,7 C 25,7 C 0,0 km/h (0 Bft)
01.09.2016 08:55 17,7 C 21,5 C 14,7 C 26,6 C 26,6 C 8,9 C 73 % 83 % 100 % 1020,9 hPa 0,0 l/m 0,0 km/h (0 Bft) W-NW 292 5 min 12,8 C 26,6 C 0,0 km/h (0 Bft)
01.09.2016 09:00 18,0 C 21,5 C 14,9 C 26,3 C 26,3 C 8,3 C 72 % 82 % 100 % 1020,9 hPa 0,0 l/m 0,0 km/h (0 Bft) W 270 5 min 12,9 C 26,3 C 0,0 km/h (0 Bft)
01.09.2016 09:05 18,5 C 21,5 C 15,1 C 24,2 C 24,2 C 5,7 C 71 % 82 % 100 % 1021,5 hPa 0,0 l/m 0,0 km/h (0 Bft) W 270 5 min 13,1 C 24,2 C 0,0 km/h (0 Bft)
01.09.2016 09:10 18,7 C 21,5 C 15,3 C 23,2 C 23,2 C 4,5 C 70 % 81 % 100 % 1021,5 hPa 0,0 l/m 0,0 km/h (0 Bft) W 270 5 min 13,1 C 23,2 C 0,0 km/h (0 Bft)
01.09.2016 09:15 19,2 C 21,5 C 15,6 C 23,0 C 23,0 C 3,8 C 68 % 81 % 100 % 1021,5 hPa 0,0 l/m 0,0 km/h (0 Bft) SW 225 5 min 13,1 C 23,0 C 0,0 km/h (0 Bft)
01.09.2016 09:20 19,3 C 21,5 C 15,9 C 22,6 C 22,6 C 3,3 C 68 % 81 % 87 % 1021,5 hPa 0,0 l/m 0,0 km/h (0 Bft) S-SW 202 5 min 13,2 C 22,6 C 0,0 km/h (0 Bft)
01.09.2016 09:25 19,5 C 21,4 C 16,1 C 21,9 C 21,9 C 2,4 C 67 % 80 % 63 % 1021,2 hPa 0,0 l/m 0,0 km/h (0 Bft) W-SW 247 0 min 13,2 C 21,9 C 0,0 km/h (0 Bft)
01.09.2016 09:30 19,6 C 21,4 C 16,3 C 21,6 C 21,6 C 2,0 C 66 % 80 % 53 % 1021,2 hPa 0,0 l/m 0,0 km/h (0 Bft) NW 315 0 min 13,1 C 21,6 C 1,8 km/h (1 Bft)
01.09.2016 09:35 19,7 C 21,4 C 16,6 C 22,2 C 22,2 C 2,5 C 65 % 79 % 66 % 1021,2 hPa 0,0 l/m 0,2 km/h (0 Bft) S 180 0 min 12,9 C 22,2 C 0,0 km/h (0 Bft)
01.09.2016 09:40 19,9 C 21,4 C 16,9 C 22,2 C 22,2 C 2,3 C 64 % 78 % 61 % 1021,2 hPa 0,0 l/m 0,5 km/h (0 Bft) W-SW 247 0 min 12,9 C 22,2 C 0,0 km/h (0 Bft)
01.09.2016 09:45 20,2 C 21,4 C 17,3 C 22,2 C 22,2 C 2,0 C 64 % 78 % 53 % 1021,3 hPa 0,0 l/m 0,3 km/h (0 Bft) N-NO 22 0 min 13,2 C 22,2 C 5,1 km/h (1 Bft)
01.09.2016 09:50 20,3 C 21,4 C 17,5 C 22,2 C 22,2 C 1,9 C 63 % 77 % 50 % 1021,3 hPa 0,0 l/m 0,3 km/h (0 Bft) S-SO 157 0 min 13,0 C 22,2 C 1,9 km/h (1 Bft)
01.09.2016 09:55 20,4 C 21,4 C 17,6 C 22,2 C 22,2 C 1,8 C 63 % 76 % 47 % 1021,3 hPa 0,0 l/m 0,6 km/h (0 Bft) SW 225 0 min 13,1 C 22,2 C 2,1 km/h (1 Bft)
01.09.2016 10:00 20,4 C 21,4 C 17,8 C 22,2 C 22,2 C 1,8 C 62 % 75 % 47 % 1021,3 hPa 0,0 l/m 0,6 km/h (0 Bft) W-SW 247 0 min 12,9 C 22,2 C 1,8 km/h (1 Bft)
01.09.2016 10:05 20,5 C 21,4 C 18,3 C 22,6 C 22,6 C 2,1 C 62 % 74 % 55 % 1021,5 hPa 0,0 l/m 0,6 km/h (0 Bft) SW 225 0 min 13,0 C 22,6 C 0,0 km/h (0 Bft)
01.09.2016 10:12 21,1 C 21,4 C 19,1 C 23,7 C 23,7 C 2,6 C 61 % 72 % 68 % 1021,5 hPa 0,0 l/m 1,6 km/h (1 Bft) N 0 0 min 13,3 C 23,7 C 8,4 km/h (2 Bft)
01.09.2016 10:20 21,3 C 21,3 C 19,3 C 24,3 C 24,3 C 3,0 C 60 % 72 % 79 % 1021,5 hPa 0,0 l/m 1,3 km/h (1 Bft) W-SW 247 0 min 13,2 C 24,3 C 2,7 km/h (1 Bft)
01.09.2016 10:25 21,7 C 21,3 C 19,9 C 25,3 C 25,3 C 3,6 C 60 % 70 % 95 % 1021,6 hPa 0,0 l/m 0,6 km/h (0 Bft) S-SW 202 5 min 13,6 C 25,3 C 0,0 km/h (0 Bft)
01.09.2016 10:30 22,0 C 21,3 C 20,1 C 25,7 C 25,7 C 3,7 C 59 % 70 % 97 % 1021,6 hPa 0,0 l/m 0,6 km/h (0 Bft) W-SW 247 5 min 13,6 C 25,7 C 0,0 km/h (0 Bft)
01.09.2016 10:35 22,3 C 21,4 C 20,3 C 26,1 C 26,1 C 3,8 C 57 % 68 % 100 % 1021,6 hPa 0,0 l/m 0,5 km/h (0 Bft) W-SW 247 5 min 13,4 C 26,1 C 0,0 km/h (0 Bft)
01.09.2016 10:40 22,4 C 21,4 C 20,3 C 26,1 C 26,1 C 3,7 C 57 % 68 % 97 % 1021,6 hPa 0,0 l/m 0,3 km/h (0 Bft) W-SW 247 5 min 13,5 C 26,1 C 0,0 km/h (0 Bft)
01.09.2016 10:45 22,7 C 21,4 C 20,5 C 26,1 C 26,1 C 3,4 C 56 % 67 % 89 % 1021,3 hPa 0,0 l/m 0,3 km/h (0 Bft) W-SW 247 5 min 13,5 C 26,1 C 1,6 km/h (1 Bft)
01.09.2016 10:50 22,8 C 21,4 C 20,6 C 26,2 C 26,2 C 3,4 C 56 % 67 % 89 % 1021,3 hPa 0,0 l/m 0,3 km/h (0 Bft) NW 315 5 min 13,6 C 26,2 C 0,0 km/h (0 Bft)
01.09.2016 10:55 23,1 C 21,4 C 20,8 C 26,4 C 26,4 C 3,3 C 55 % 66 % 87 % 1021,3 hPa 0,0 l/m 0,2 km/h (0 Bft) W-SW 247 5 min 13,6 C 26,4 C 1,6 km/h (1 Bft)
01.09.2016 11:00 23,0 C 21,4 C 20,8 C 26,3 C 26,3 C 3,3 C 55 % 66 % 87 % 1021,3 hPa 0,0 l/m 0,2 km/h (0 Bft) W-SW 247 5 min 13,5 C 26,3 C 0,0 km/h (0 Bft)
01.09.2016 11:05 23,3 C 21,4 C 20,9 C 26,0 C 26,0 C 2,7 C 55 % 66 % 71 % 1021,5 hPa 0,0 l/m 0,2 km/h (0 Bft) W-SW 247 0 min 13,7 C 26,0 C 0,0 km/h (0 Bft)
01.09.2016 11:10 23,3 C 21,4 C 20,9 C 26,0 C 26,0 C 2,7 C 54 % 65 % 71 % 1021,5 hPa 0,0 l/m 0,0 km/h (0 Bft) SW 225 0 min 13,5 C 26,0 C 0,0 km/h (0 Bft)
01.09.2016 11:15 23,3 C 21,4 C 21,1 C 25,8 C 25,8 C 2,5 C 53 % 64 % 66 % 1021,5 hPa 0,0 l/m 0,6 km/h (0 Bft) S-SO 157 0 min 13,2 C 25,8 C 2,9 km/h (1 Bft)
01.09.2016 11:20 23,3 C 21,4 C 21,2 C 25,6 C 25,6 C 2,3 C 53 % 64 % 61 % 1021,5 hPa 0,0 l/m 0,8 km/h (0 Bft) S-SW 202 0 min 13,2 C 25,6 C 2,6 km/h (1 Bft)
01.09.2016 11:25 23,3 C 21,4 C 21,5 C 25,9 C 25,9 C 2,6 C 54 % 63 % 68 % 1021,4 hPa 0,0 l/m 0,8 km/h (0 Bft) N-NW 337 0 min 13,5 C 25,9 C 2,3 km/h (1 Bft)
01.09.2016 11:30 23,4 C 21,4 C 21,6 C 26,1 C 26,1 C 2,7 C 54 % 62 % 71 % 1021,4 hPa 0,0 l/m 0,3 km/h (0 Bft) NW 315 0 min 13,6 C 26,1 C 0,0 km/h (0 Bft)
01.09.2016 11:35 23,6 C 21,4 C 21,7 C 26,4 C 26,4 C 2,8 C 53 % 62 % 74 % 1021,4 hPa 0,0 l/m 0,2 km/h (0 Bft) S 180 0 min 13,4 C 26,4 C 0,0 km/h (0 Bft)
01.09.2016 11:40 23,7 C 21,4 C 22,1 C 26,7 C 26,7 C 3,0 C 53 % 62 % 79 % 1021,4 hPa 0,0 l/m 0,3 km/h (0 Bft) W 270 0 min 13,5 C 26,7 C 0,0 km/h (0 Bft)
01.09.2016 11:45 23,7 C 21,5 C 22,2 C 26,5 C 26,5 C 2,8 C 53 % 61 % 74 % 1021,3 hPa 0,0 l/m 0,8 km/h (0 Bft) S-SO 157 0 min 13,5 C 26,5 C 0,0 km/h (0 Bft)
01.09.2016 11:50 23,7 C 21,4 C 22,2 C 26,4 C 26,4 C 2,7 C 52 % 61 % 71 % 1021,3 hPa 0,0 l/m 1,0 km/h (0 Bft) W-NW 292 0 min 13,2 C 26,4 C 0,0 km/h (0 Bft)
01.09.2016 11:55 23,7 C 21,4 C 22,3 C 26,5 C 26,5 C 2,8 C 52 % 61 % 74 % 1021,3 hPa 0,0 l/m 0,6 km/h (0 Bft) NO 45 0 min 13,2 C 26,5 C 2,4 km/h (1 Bft)
01.09.2016 12:00 23,9 C 21,4 C 22,6 C 26,7 C 26,7 C 2,8 C 52 % 60 % 74 % 1021,3 hPa 0,0 l/m 0,8 km/h (0 Bft) W-SW 247 0 min 13,4 C 26,7 C 3,2 km/h (1 Bft)
01.09.2016 12:05 24,1 C 21,4 C 22,9 C 27,3 C 27,3 C 3,2 C 51 % 58 % 84 % 1021,0 hPa 0,0 l/m 1,4 km/h (1 Bft) NW 315 0 min 13,3 C 27,3 C 2,4 km/h (1 Bft)
01.09.2016 12:12 24,2 C 21,4 C 23,3 C 27,7 C 27,7 C 3,5 C 51 % 56 % 92 % 1021,0 hPa 0,0 l/m 1,6 km/h (1 Bft) N 0 7 min 13,4 C 27,7 C 0,0 km/h (0 Bft)
01.09.2016 12:20 24,5 C 21,5 C 23,5 C 28,1 C 28,1 C 3,6 C 51 % 55 % 95 % 1021,0 hPa 0,0 l/m 2,3 km/h (1 Bft) W-SW 247 8 min 13,7 C 28,1 C 0,0 km/h (0 Bft)
01.09.2016 12:25 24,6 C 21,5 C 23,7 C 28,7 C 28,7 C 4,1 C 50 % 56 % 100 % 1021,5 hPa 0,0 l/m 1,6 km/h (1 Bft) NW 315 5 min 13,5 C 28,7 C 5,5 km/h (1 Bft)
01.09.2016 12:30 24,7 C 21,5 C 23,5 C 29,0 C 29,0 C 4,3 C 48 % 54 % 100 % 1021,5 hPa 0,0 l/m 1,8 km/h (1 Bft) O-NO 67 5 min 12,9 C 29,0 C 2,1 km/h (1 Bft)
01.09.2016 12:35 24,7 C 21,5 C 23,3 C 28,5 C 28,5 C 3,8 C 49 % 55 % 100 % 1021,5 hPa 0,0 l/m 1,9 km/h (1 Bft) W-NW 292 5 min 13,3 C 28,5 C 3,5 km/h (1 Bft)
01.09.2016 12:40 24,7 C 21,5 C 23,2 C 28,0 C 28,0 C 3,3 C 50 % 56 % 87 % 1021,5 hPa 0,0 l/m 1,0 km/h (0 Bft) SW 225 5 min 13,6 C 28,0 C 1,8 km/h (1 Bft)
01.09.2016 12:45 24,7 C 21,5 C 23,3 C 27,9 C 27,9 C 3,2 C 50 % 56 % 84 % 1021,1 hPa 0,0 l/m 1,0 km/h (0 Bft) W-SW 247 0 min 13,6 C 27,9 C 1,9 km/h (1 Bft)
01.09.2016 12:50 24,8 C 21,5 C 23,4 C 28,4 C 28,4 C 3,6 C 50 % 56 % 95 % 1021,1 hPa 0,0 l/m 1,0 km/h (0 Bft) N-NO 22 5 min 13,7 C 28,4 C 0,0 km/h (0 Bft)
01.09.2016 12:55 25,2 C 21,5 C 23,4 C 28,6 C 28,6 C 3,4 C 49 % 55 % 89 % 1021,1 hPa 0,0 l/m 0,5 km/h (0 Bft) NW 315 5 min 13,7 C 28,6 C 0,0 km/h (0 Bft)
01.09.2016 13:00 25,2 C 21,5 C 23,4 C 28,6 C 28,6 C 3,4 C 49 % 55 % 89 % 1021,1 hPa 0,0 l/m 0,8 km/h (0 Bft) N-NW 337 5 min 13,7 C 28,6 C 4,8 km/h (1 Bft)
01.09.2016 13:05 25,3 C 21,6 C 23,6 C 28,8 C 28,8 C 3,5 C 49 % 55 % 92 % 1021,1 hPa 0,0 l/m 1,0 km/h (0 Bft) SO 135 5 min 13,8 C 28,8 C 0,0 km/h (0 Bft)
01.09.2016 13:10 25,7 C 21,6 C 23,9 C 29,3 C 29,3 C 3,6 C 49 % 55 % 95 % 1021,1 hPa 0,0 l/m 1,0 km/h (0 Bft) SW 225 5 min 14,2 C 29,3 C 2,1 km/h (1 Bft)
01.09.2016 13:15 25,9 C 21,6 C 23,9 C 29,5 C 29,5 C 3,6 C 48 % 55 % 95 % 1021,1 hPa 0,0 l/m 1,0 km/h (0 Bft) SO 135 5 min 14,0 C 29,5 C 0,0 km/h (0 Bft)
01.09.2016 13:20 25,8 C 21,6 C 23,7 C 29,3 C 29,3 C 3,5 C 48 % 55 % 92 % 1021,1 hPa 0,0 l/m 0,8 km/h (0 Bft) W 270 5 min 13,9 C 29,3 C 2,9 km/h (1 Bft)
01.09.2016 13:25 25,8 C 21,6 C 23,6 C 28,6 C 28,6 C 2,8 C 47 % 55 % 74 % 1021,2 hPa 0,0 l/m 1,0 km/h (0 Bft) SW 225 0 min 13,6 C 28,6 C 0,0 km/h (0 Bft)
01.09.2016 13:30 25,6 C 21,6 C 23,6 C 28,2 C 28,2 C 2,6 C 47 % 55 % 68 % 1021,2 hPa 0,0 l/m 1,1 km/h (1 Bft) SW 225 0 min 13,4 C 28,2 C 0,0 km/h (0 Bft)
01.09.2016 13:35 25,6 C 21,6 C 23,4 C 27,8 C 27,8 C 2,2 C 48 % 55 % 58 % 1021,2 hPa 0,0 l/m 0,5 km/h (0 Bft) W 270 0 min 13,8 C 27,8 C 0,0 km/h (0 Bft)
01.09.2016 13:40 25,6 C 21,7 C 23,4 C 27,5 C 27,5 C 1,9 C 48 % 56 % 50 % 1021,2 hPa 0,0 l/m 0,2 km/h (0 Bft) W-SW 247 0 min 13,8 C 27,5 C 0,0 km/h (0 Bft)
01.09.2016 13:45 25,5 C 21,7 C 23,3 C 27,1 C 27,1 C 1,6 C 48 % 56 % 42 % 1021,1 hPa 0,0 l/m 1,0 km/h (0 Bft) W-SW 247 0 min 13,7 C 27,1 C 1,6 km/h (1 Bft)
01.09.2016 13:50 25,3 C 21,7 C 23,3 C 26,8 C 26,8 C 1,5 C 48 % 55 % 39 % 1021,1 hPa 0,0 l/m 1,3 km/h (1 Bft) S-SW 202 0 min 13,5 C 26,8 C 2,7 km/h (1 Bft)
01.09.2016 13:55 25,0 C 21,7 C 23,3 C 26,6 C 26,6 C 1,6 C 49 % 56 % 42 % 1021,1 hPa 0,0 l/m 0,8 km/h (0 Bft) W 270 0 min 13,5 C 26,6 C 0,0 km/h (0 Bft)
01.09.2016 14:00 25,1 C 21,7 C 23,3 C 26,6 C 26,6 C 1,5 C 49 % 56 % 39 % 1021,1 hPa 0,0 l/m 0,5 km/h (0 Bft) SW 225 0 min 13,6 C 26,6 C 0,0 km/h (0 Bft)
01.09.2016 14:05 25,0 C 21,7 C 23,3 C 26,5 C 26,5 C 1,5 C 49 % 56 % 39 % 1020,9 hPa 0,0 l/m 0,5 km/h (0 Bft) S 180 0 min 13,5 C 26,5 C 0,0 km/h (0 Bft)
01.09.2016 14:12 24,9 C 21,7 C 23,3 C 26,7 C 26,7 C 1,8 C 49 % 56 % 47 % 1020,9 hPa 0,0 l/m 0,2 km/h (0 Bft) N 0 0 min 13,4 C 26,7 C 0,0 km/h (0 Bft)
01.09.2016 14:20 24,9 C 21,8 C 23,2 C 26,7 C 26,7 C 1,8 C 49 % 56 % 47 % 1020,9 hPa 0,0 l/m 0,3 km/h (0 Bft) W-NW 292 0 min 13,4 C 26,7 C 0,0 km/h (0 Bft)
01.09.2016 14:25 25,0 C 21,8 C 23,4 C 27,1 C 27,1 C 2,1 C 49 % 56 % 55 % 1020,7 hPa 0,0 l/m 0,3 km/h (0 Bft) W-NW 292 0 min 13,5 C 27,1 C 0,0 km/h (0 Bft)
01.09.2016 14:30 25,1 C 21,8 C 23,7 C 27,9 C 27,9 C 2,8 C 49 % 56 % 74 % 1020,7 hPa 0,0 l/m 0,5 km/h (0 Bft) S-SO 157 0 min 13,6 C 27,9 C 1,6 km/h (1 Bft)
01.09.2016 14:35 25,6 C 21,8 C 23,9 C 29,4 C 29,4 C 3,8 C 48 % 55 % 100 % 1020,7 hPa 0,0 l/m 1,0 km/h (0 Bft) W-SW 247 5 min 13,8 C 29,4 C 5,0 km/h (1 Bft)
01.09.2016 14:40 25,9 C 21,8 C 23,8 C 29,3 C 29,3 C 3,4 C 47 % 55 % 89 % 1020,7 hPa 0,0 l/m 1,0 km/h (0 Bft) W-NW 292 5 min 13,7 C 29,3 C 0,0 km/h (0 Bft)
01.09.2016 14:45 25,9 C 21,8 C 23,7 C 29,4 C 29,4 C 3,5 C 48 % 55 % 92 % 1020,7 hPa 0,0 l/m 0,8 km/h (0 Bft) S-SW 202 5 min 14,0 C 29,4 C 1,9 km/h (1 Bft)
01.09.2016 14:50 26,2 C 21,9 C 23,9 C 29,7 C 29,7 C 3,5 C 47 % 54 % 92 % 1020,7 hPa 0,0 l/m 1,0 km/h (0 Bft) NW 315 5 min 14,0 C 29,7 C 0,0 km/h (0 Bft)
01.09.2016 14:55 26,5 C 21,9 C 24,1 C 30,6 C 30,6 C 4,1 C 46 % 55 % 100 % 1020,7 hPa 0,0 l/m 0,8 km/h (0 Bft) NO 45 5 min 13,9 C 30,6 C 0,0 km/h (0 Bft)
01.09.2016 15:00 26,6 C 21,8 C 24,5 C 31,6 C 31,6 C 5,0 C 46 % 55 % 100 % 1020,7 hPa 0,0 l/m 0,3 km/h (0 Bft) W-NW 292 5 min 14,0 C 31,6 C 0,0 km/h (0 Bft)
01.09.2016 15:05 26,5 C 21,8 C 24,9 C 32,5 C 32,5 C 6,0 C 44 % 53 % 100 % 1020,4 hPa 0,0 l/m 1,8 km/h (1 Bft) NW 315 5 min 13,2 C 32,5 C 3,7 km/h (1 Bft)
01.09.2016 15:10 26,5 C 21,9 C 25,1 C 32,8 C 32,8 C 6,3 C 46 % 53 % 100 % 1020,4 hPa 0,0 l/m 1,9 km/h (1 Bft) O 90 5 min 13,9 C 32,8 C 3,4 km/h (1 Bft)
01.09.2016 15:15 26,7 C 21,9 C 25,5 C 33,6 C 33,6 C 6,9 C 46 % 53 % 100 % 1020,4 hPa 0,0 l/m 1,0 km/h (0 Bft) SO 135 5 min 14,1 C 33,6 C 2,4 km/h (1 Bft)
01.09.2016 15:20 27,2 C 21,9 C 25,7 C 34,2 C 34,2 C 7,0 C 45 % 52 % 100 % 1020,4 hPa 0,0 l/m 1,1 km/h (1 Bft) N 360 5 min 14,2 C 34,2 C 0,0 km/h (0 Bft)
01.09.2016 15:25 27,9 C 21,9 C 26,0 C 34,7 C 34,7 C 6,8 C 45 % 51 % 100 % 1020,4 hPa 0,0 l/m 1,4 km/h (1 Bft) N-NW 337 5 min 14,8 C 34,7 C 0,0 km/h (0 Bft)
01.09.2016 15:30 28,3 C 22,0 C 26,2 C 34,7 C 34,7 C 6,4 C 44 % 51 % 100 % 1020,4 hPa 0,0 l/m 1,6 km/h (1 Bft) W-SW 247 5 min 14,9 C 34,7 C 2,1 km/h (1 Bft)
01.09.2016 15:35 28,4 C 22,0 C 26,2 C 34,4 C 34,4 C 6,0 C 43 % 50 % 100 % 1020,4 hPa 0,0 l/m 2,1 km/h (1 Bft) SW 225 5 min 14,6 C 34,4 C 3,5 km/h (1 Bft)
01.09.2016 15:40 28,2 C 22,0 C 26,2 C 33,1 C 33,1 C 4,9 C 43 % 50 % 100 % 1020,4 hPa 0,0 l/m 2,1 km/h (1 Bft) SW 225 5 min 14,4 C 33,1 C 2,4 km/h (1 Bft)
01.09.2016 15:45 28,1 C 22,0 C 26,2 C 32,5 C 32,5 C 4,4 C 43 % 50 % 100 % 1019,9 hPa 0,0 l/m 2,1 km/h (1 Bft) SW 225 5 min 14,3 C 32,5 C 3,7 km/h (1 Bft)
01.09.2016 15:50 27,9 C 22,0 C 26,3 C 32,3 C 32,3 C 4,4 C 42 % 50 % 100 % 1019,9 hPa 0,0 l/m 2,1 km/h (1 Bft) S 180 5 min 13,8 C 32,3 C 1,9 km/h (1 Bft)
01.09.2016 15:55 27,9 C 22,0 C 26,3 C 32,5 C 32,5 C 4,6 C 42 % 49 % 100 % 1019,9 hPa 0,0 l/m 2,3 km/h (1 Bft) O-SO 112 5 min 13,8 C 32,5 C 3,5 km/h (1 Bft)
01.09.2016 16:00 27,7 C 22,0 C 26,0 C 31,9 C 31,9 C 4,2 C 44 % 50 % 100 % 1019,9 hPa 0,0 l/m 1,6 km/h (1 Bft) N-NO 22 5 min 14,3 C 31,9 C 1,6 km/h (1 Bft)
01.09.2016 16:05 27,4 C 22,0 C 25,9 C 31,2 C 31,2 C 3,8 C 44 % 50 % 100 % 1020,1 hPa 0,0 l/m 1,9 km/h (1 Bft) SW 225 5 min 14,0 C 31,2 C 4,5 km/h (1 Bft)
01.09.2016 16:12 27,1 C 22,1 C 26,1 C 31,4 C 31,4 C 4,3 C 44 % 50 % 100 % 1020,1 hPa 0,0 l/m 2,4 km/h (1 Bft) N 0 7 min 13,8 C 31,4 C 3,9 km/h (1 Bft)
01.09.2016 16:20 27,0 C 22,1 C 26,0 C 31,6 C 31,6 C 4,6 C 44 % 50 % 100 % 1020,1 hPa 0,0 l/m 1,6 km/h (1 Bft) N 360 8 min 13,7 C 31,6 C 2,9 km/h (1 Bft)
01.09.2016 16:25 26,8 C 22,1 C 25,7 C 31,3 C 31,3 C 4,5 C 44 % 50 % 100 % 1019,9 hPa 0,0 l/m 1,0 km/h (0 Bft) W 270 5 min 13,5 C 31,3 C 2,1 km/h (1 Bft)
01.09.2016 16:30 26,7 C 22,1 C 25,7 C 31,5 C 31,5 C 4,8 C 45 % 50 % 100 % 1019,9 hPa 0,0 l/m 1,1 km/h (1 Bft) N-NW 337 5 min 13,8 C 31,5 C 1,8 km/h (1 Bft)
01.09.2016 16:35 26,7 C 22,1 C 25,6 C 31,3 C 31,3 C 4,6 C 46 % 50 % 100 % 1019,9 hPa 0,0 l/m 1,1 km/h (1 Bft) W-SW 247 5 min 14,1 C 31,3 C 0,0 km/h (0 Bft)
01.09.2016 16:40 26,6 C 22,1 C 25,4 C 30,5 C 30,5 C 3,9 C 46 % 51 % 100 % 1019,9 hPa 0,0 l/m 0,5 km/h (0 Bft) SW 225 5 min 14,0 C 30,5 C 0,0 km/h (0 Bft)
01.09.2016 16:45 26,5 C 22,2 C 25,3 C 29,3 C 29,3 C 2,8 C 46 % 51 % 74 % 1020,1 hPa 0,0 l/m 1,3 km/h (1 Bft) NW 315 0 min 13,9 C 29,3 C 3,4 km/h (1 Bft)
01.09.2016 16:50 26,3 C 22,2 C 25,4 C 29,1 C 29,1 C 2,8 C 46 % 51 % 74 % 1020,1 hPa 0,0 l/m 1,4 km/h (1 Bft) NW 315 0 min 13,7 C 29,1 C 0,0 km/h (0 Bft)
01.09.2016 16:55 26,4 C 22,2 C 26,1 C 30,1 C 30,1 C 3,7 C 46 % 51 % 97 % 1020,1 hPa 0,0 l/m 1,3 km/h (1 Bft) W-SW 247 5 min 13,8 C 30,1 C 2,1 km/h (1 Bft)
01.09.2016 17:00 26,5 C 22,2 C 26,3 C 31,1 C 31,1 C 4,6 C 46 % 51 % 100 % 1020,1 hPa 0,0 l/m 1,3 km/h (1 Bft) S-SW 202 5 min 13,9 C 31,1 C 3,4 km/h (1 Bft)
01.09.2016 17:05 26,8 C 22,2 C 26,6 C 32,7 C 32,7 C 5,9 C 46 % 50 % 100 % 1020,0 hPa 0,0 l/m 0,6 km/h (0 Bft) S 180 5 min 14,2 C 32,7 C 0,0 km/h (0 Bft)
01.09.2016 17:10 26,9 C 22,2 C 27,0 C 32,9 C 32,9 C 6,0 C 46 % 50 % 100 % 1020,0 hPa 0,0 l/m 0,5 km/h (0 Bft) SW 225 5 min 14,3 C 32,9 C 3,1 km/h (1 Bft)
01.09.2016 17:15 27,1 C 22,3 C 27,5 C 32,9 C 32,9 C 5,8 C 46 % 48 % 100 % 1020,0 hPa 0,0 l/m 1,3 km/h (1 Bft) S-SW 202 5 min 14,5 C 32,9 C 3,5 km/h (1 Bft)
01.09.2016 17:20 27,1 C 22,3 C 27,5 C 32,5 C 32,5 C 5,4 C 45 % 47 % 100 % 1020,0 hPa 0,0 l/m 1,8 km/h (1 Bft) S 180 5 min 14,1 C 32,5 C 1,8 km/h (1 Bft)
01.09.2016 17:25 27,1 C 22,3 C 27,1 C 32,0 C 32,0 C 4,9 C 45 % 47 % 100 % 1019,9 hPa 0,0 l/m 1,4 km/h (1 Bft) N-NW 337 5 min 14,1 C 32,0 C 3,7 km/h (1 Bft)
01.09.2016 17:30 26,7 C 22,3 C 26,5 C 31,4 C 31,4 C 4,7 C 45 % 47 % 100 % 1019,9 hPa 0,0 l/m 1,3 km/h (1 Bft) SW 225 5 min 13,8 C 31,4 C 0,0 km/h (0 Bft)
01.09.2016 17:35 26,5 C 22,3 C 26,3 C 30,7 C 30,7 C 4,2 C 45 % 49 % 100 % 1019,9 hPa 0,0 l/m 1,6 km/h (1 Bft) S-SW 202 5 min 13,6 C 30,7 C 3,5 km/h (1 Bft)
01.09.2016 17:40 26,4 C 22,3 C 26,4 C 30,4 C 30,4 C 4,0 C 45 % 49 % 100 % 1019,9 hPa 0,0 l/m 1,6 km/h (1 Bft) SW 225 5 min 13,5 C 30,4 C 0,0 km/h (0 Bft)
01.09.2016 17:45 26,5 C 22,4 C 26,7 C 30,2 C 30,2 C 3,7 C 44 % 48 % 97 % 1019,7 hPa 0,0 l/m 1,3 km/h (1 Bft) W 270 5 min 13,2 C 30,2 C 6,1 km/h (2 Bft)
01.09.2016 17:50 26,4 C 22,4 C 26,5 C 29,8 C 29,8 C 3,4 C 44 % 48 % 89 % 1019,7 hPa 0,0 l/m 1,0 km/h (0 Bft) SO 135 5 min 13,1 C 29,8 C 0,0 km/h (0 Bft)
01.09.2016 17:55 26,4 C 22,4 C 26,8 C 29,5 C 29,5 C 3,1 C 46 % 48 % 82 % 1019,7 hPa 0,0 l/m 1,0 km/h (0 Bft) SW 225 5 min 13,8 C 29,5 C 0,0 km/h (0 Bft)
01.09.2016 18:00 26,4 C 22,4 C 26,7 C 29,2 C 29,2 C 2,8 C 46 % 48 % 74 % 1019,7 hPa 0,0 l/m 1,0 km/h (0 Bft) SW 225 0 min 13,8 C 29,2 C 5,6 km/h (1 Bft)
01.09.2016 18:05 26,4 C 22,4 C 26,5 C 29,1 C 29,1 C 2,7 C 44 % 48 % 71 % 1019,7 hPa 0,0 l/m 1,8 km/h (1 Bft) SW 225 0 min 13,1 C 29,1 C 4,2 km/h (1 Bft)
01.09.2016 18:12 26,3 C 22,5 C 25,9 C 28,5 C 28,5 C 2,2 C 44 % 48 % 58 % 1019,7 hPa 0,0 l/m 2,1 km/h (1 Bft) N 0 0 min 13,1 C 28,5 C 2,7 km/h (1 Bft)
01.09.2016 18:20 26,2 C 22,5 C 25,9 C 28,4 C 28,4 C 2,2 C 44 % 49 % 58 % 1019,7 hPa 0,0 l/m 1,6 km/h (1 Bft) W 270 0 min 13,0 C 28,4 C 4,2 km/h (1 Bft)
01.09.2016 18:25 26,2 C 22,5 C 25,6 C 28,0 C 28,0 C 1,8 C 45 % 49 % 47 % 1019,8 hPa 0,0 l/m 1,3 km/h (1 Bft) W-SW 247 0 min 13,3 C 28,0 C 3,2 km/h (1 Bft)
01.09.2016 18:30 26,0 C 22,5 C 25,5 C 27,7 C 27,7 C 1,7 C 45 % 50 % 45 % 1019,8 hPa 0,0 l/m 1,0 km/h (0 Bft) S-SW 202 0 min 13,1 C 27,7 C 0,0 km/h (0 Bft)
01.09.2016 18:35 26,0 C 22,5 C 25,3 C 27,2 C 27,2 C 1,2 C 45 % 50 % 32 % 1019,8 hPa 0,0 l/m 0,3 km/h (0 Bft) SW 225 0 min 13,1 C 27,2 C 0,0 km/h (0 Bft)
01.09.2016 18:40 26,0 C 22,5 C 25,2 C 26,9 C 26,9 C 0,9 C 45 % 51 % 24 % 1019,8 hPa 0,0 l/m 0,3 km/h (0 Bft) N 360 0 min 13,1 C 26,9 C 0,0 km/h (0 Bft)
01.09.2016 18:45 25,9 C 22,5 C 25,1 C 26,7 C 26,7 C 0,8 C 46 % 51 % 21 % 1019,8 hPa 0,0 l/m 0,3 km/h (0 Bft) W-SW 247 0 min 13,4 C 26,7 C 0,0 km/h (0 Bft)
01.09.2016 18:50 25,8 C 22,5 C 24,8 C 26,5 C 26,5 C 0,7 C 46 % 52 % 18 % 1019,8 hPa 0,0 l/m 0,3 km/h (0 Bft) W 270 0 min 13,3 C 26,5 C 0,0 km/h (0 Bft)
01.09.2016 18:55 25,7 C 22,5 C 24,3 C 25,7 C 25,7 C 0,0 C 47 % 53 % 0 % 1019,8 hPa 0,0 l/m 0,0 km/h (0 Bft) O 90 0 min 13,5 C 25,7 C 0,0 km/h (0 Bft)
01.09.2016 19:00 25,5 C 22,6 C 24,1 C 25,4 C 25,2 C 0,0 C 47 % 54 % 0 % 1019,8 hPa 0,0 l/m 0,0 km/h (0 Bft) O 90 0 min 13,3 C 25,2 C 0,0 km/h (0 Bft)
01.09.2016 19:05 25,0 C 22,6 C 23,4 C 24,8 C 24,3 C 0,0 C 48 % 55 % 0 % 1019,7 hPa 0,0 l/m 0,0 km/h (0 Bft) O-NO 67 0 min 13,2 C 24,3 C 0,0 km/h (0 Bft)
01.09.2016 19:10 24,7 C 22,6 C 23,3 C 24,5 C 24,0 C 0,0 C 48 % 56 % 0 % 1019,7 hPa 0,0 l/m 0,0 km/h (0 Bft) O-NO 67 0 min 12,9 C 24,0 C 0,0 km/h (0 Bft)
01.09.2016 19:15 24,3 C 22,6 C 23,0 C 24,1 C 23,6 C 0,0 C 50 % 57 % 0 % 1019,7 hPa 0,0 l/m 0,0 km/h (0 Bft) O-NO 67 0 min 13,2 C 23,6 C 0,0 km/h (0 Bft)
01.09.2016 19:20 24,1 C 22,6 C 22,8 C 23,9 C 23,6 C 0,0 C 51 % 58 % 0 % 1019,7 hPa 0,0 l/m 0,0 km/h (0 Bft) W-SW 247 0 min 13,3 C 23,6 C 0,0 km/h (0 Bft)
01.09.2016 19:25 23,8 C 22,6 C 22,7 C 23,8 C 23,7 C 0,0 C 52 % 58 % 0 % 1019,9 hPa 0,0 l/m 0,0 km/h (0 Bft) N 360 0 min 13,3 C 23,7 C 0,0 km/h (0 Bft)
01.09.2016 19:30 23,6 C 22,6 C 22,5 C 23,6 C 23,6 C 0,0 C 52 % 59 % 0 % 1019,9 hPa 0,0 l/m 0,0 km/h (0 Bft) N 360 0 min 13,2 C 23,6 C 0,0 km/h (0 Bft)
01.09.2016 19:35 23,3 C 22,6 C 22,1 C 23,2 C 23,1 C 0,0 C 53 % 61 % 0 % 1019,9 hPa 0,0 l/m 0,0 km/h (0 Bft) N 360 0 min 13,2 C 23,1 C 0,0 km/h (0 Bft)
01.09.2016 19:40 23,2 C 22,6 C 22,1 C 23,0 C 22,5 C 0,0 C 54 % 61 % 0 % 1019,9 hPa 0,0 l/m 0,0 km/h (0 Bft) NW 315 0 min 13,4 C 22,5 C 0,0 km/h (0 Bft)
01.09.2016 19:45 22,9 C 22,6 C 21,7 C 22,5 C 21,8 C 0,0 C 56 % 62 % 0 % 1019,7 hPa 0,0 l/m 0,0 km/h (0 Bft) O 90 0 min 13,6 C 21,8 C 0,0 km/h (0 Bft)
01.09.2016 19:50 22,5 C 22,7 C 21,4 C 22,1 C 21,3 C 0,0 C 56 % 63 % 0 % 1019,7 hPa 0,0 l/m 0,0 km/h (0 Bft) O 90 0 min 13,3 C 21,3 C 0,0 km/h (0 Bft)
01.09.2016 19:55 22,1 C 22,7 C 20,9 C 21,6 C 20,7 C 0,0 C 58 % 64 % 0 % 1019,7 hPa 0,0 l/m 0,0 km/h (0 Bft) O-NO 67 0 min 13,4 C 20,7 C 0,0 km/h (0 Bft)
01.09.2016 20:00 21,9 C 22,7 C 20,8 C 21,4 C 20,4 C 0,0 C 58 % 65 % 0 % 1019,7 hPa 0,0 l/m 0,0 km/h (0 Bft) N-NO 22 0 min 13,3 C 20,4 C 0,0 km/h (0 Bft)
01.09.2016 20:05 21,5 C 22,8 C 20,4 C 21,0 C 19,9 C 0,0 C 59 % 65 % 0 % 1019,8 hPa 0,0 l/m 0,0 km/h (0 Bft) O-NO 67 0 min 13,1 C 19,9 C 0,0 km/h (0 Bft)
01.09.2016 20:12 20,9 C 22,8 C 20,0 C 20,3 C 19,0 C 0,0 C 61 % 67 % 0 % 1019,8 hPa 0,0 l/m 0,0 km/h (0 Bft) N 0 0 min 13,1 C 19,0 C 0,0 km/h (0 Bft)
01.09.2016 20:20 20,7 C 22,8 C 19,9 C 20,0 C 18,7 C 0,0 C 62 % 68 % 0 % 1019,8 hPa 0,0 l/m 0,0 km/h (0 Bft) S 180 0 min 13,2 C 18,7 C 0,0 km/h (0 Bft)
01.09.2016 20:25 20,4 C 22,8 C 19,6 C 19,7 C 18,4 C 0,0 C 63 % 69 % 0 % 1019,9 hPa 0,0 l/m 0,0 km/h (0 Bft) O 90 0 min 13,1 C 18,4 C 0,0 km/h (0 Bft)
01.09.2016 20:30 20,3 C 22,8 C 19,4 C 19,6 C 18,2 C 0,0 C 64 % 69 % 0 % 1019,9 hPa 0,0 l/m 0,0 km/h (0 Bft) O 90 0 min 13,3 C 18,2 C 0,0 km/h (0 Bft)
01.09.2016 20:35 19,9 C 22,8 C 19,1 C 19,2 C 17,8 C 0,0 C 64 % 70 % 0 % 1019,9 hPa 0,0 l/m 0,0 km/h (0 Bft) O 90 0 min 12,9 C 17,8 C 0,0 km/h (0 Bft)
01.09.2016 20:40 19,6 C 22,8 C 18,9 C 18,9 C 17,6 C 0,0 C 65 % 71 % 0 % 1019,9 hPa 0,0 l/m 0,0 km/h (0 Bft) O 90 0 min 12,8 C 17,6 C 0,0 km/h (0 Bft)
01.09.2016 20:45 19,5 C 22,8 C 18,6 C 18,8 C 17,4 C 0,0 C 66 % 71 % 0 % 1020,1 hPa 0,0 l/m 0,0 km/h (0 Bft) O 90 0 min 13,0 C 17,4 C 0,0 km/h (0 Bft)
01.09.2016 20:50 19,2 C 22,9 C 18,5 C 18,6 C 17,3 C 0,0 C 67 % 72 % 0 % 1020,1 hPa 0,0 l/m 0,0 km/h (0 Bft) O 90 0 min 12,9 C 17,3 C 0,0 km/h (0 Bft)
01.09.2016 20:55 19,0 C 22,9 C 18,4 C 18,3 C 17,0 C 0,0 C 67 % 73 % 0 % 1020,1 hPa 0,0 l/m 0,0 km/h (0 Bft) O 90 0 min 12,7 C 17,0 C 0,0 km/h (0 Bft)
01.09.2016 21:00 18,9 C 22,9 C 18,3 C 18,2 C 16,9 C 0,0 C 68 % 73 % 0 % 1020,1 hPa 0,0 l/m 0,0 km/h (0 Bft) O 90 0 min 12,9 C 16,9 C 0,0 km/h (0 Bft)
01.09.2016 21:05 18,6 C 22,9 C 18,0 C 18,0 C 16,7 C 0,0 C 69 % 74 % 0 % 1020,1 hPa 0,0 l/m 0,0 km/h (0 Bft) O 90 0 min 12,8 C 16,7 C 0,0 km/h (0 Bft)
01.09.2016 21:10 18,4 C 22,9 C 18,0 C 17,8 C 16,6 C 0,0 C 69 % 74 % 0 % 1020,1 hPa 0,0 l/m 0,0 km/h (0 Bft) O 90 0 min 12,6 C 16,6 C 0,0 km/h (0 Bft)
01.09.2016 21:15 18,1 C 22,9 C 17,9 C 17,5 C 16,4 C 0,0 C 70 % 75 % 0 % 1020,1 hPa 0,0 l/m 0,2 km/h (0 Bft) O-NO 67 0 min 12,5 C 16,4 C 2,3 km/h (1 Bft)
01.09.2016 21:20 18,1 C 22,9 C 17,7 C 17,6 C 16,5 C 0,0 C 71 % 75 % 0 % 1020,1 hPa 0,0 l/m 0,3 km/h (0 Bft) O 90 0 min 12,8 C 16,5 C 0,0 km/h (0 Bft)
01.09.2016 21:25 17,9 C 22,9 C 17,5 C 17,4 C 16,4 C 0,0 C 72 % 76 % 0 % 1020,4 hPa 0,0 l/m 0,3 km/h (0 Bft) N 360 0 min 12,8 C 16,4 C 0,0 km/h (0 Bft)
01.09.2016 21:30 17,7 C 22,9 C 17,5 C 17,3 C 16,4 C 0,0 C 72 % 76 % 0 % 1020,4 hPa 0,0 l/m 0,0 km/h (0 Bft) N 360 0 min 12,6 C 16,4 C 0,0 km/h (0 Bft)
01.09.2016 21:35 17,5 C 22,9 C 17,5 C 17,0 C 16,1 C 0,0 C 72 % 76 % 0 % 1020,4 hPa 0,0 l/m 0,0 km/h (0 Bft) N 360 0 min 12,4 C 16,1 C 0,0 km/h (0 Bft)
01.09.2016 21:40 17,4 C 22,9 C 17,3 C 16,9 C 15,9 C 0,0 C 72 % 76 % 0 % 1020,4 hPa 0,0 l/m 0,0 km/h (0 Bft) N 360 0 min 12,3 C 15,9 C 0,0 km/h (0 Bft)
01.09.2016 21:45 17,1 C 22,9 C 17,1 C 16,6 C 15,7 C 0,0 C 73 % 77 % 0 % 1019,6 hPa 0,0 l/m 0,0 km/h (0 Bft) N 360 0 min 12,2 C 15,7 C 0,0 km/h (0 Bft)
01.09.2016 21:50 17,1 C 23,0 C 17,1 C 16,6 C 15,5 C 0,0 C 73 % 77 % 0 % 1019,6 hPa 0,0 l/m 0,0 km/h (0 Bft) N 360 0 min 12,2 C 15,5 C 0,0 km/h (0 Bft)
01.09.2016 21:55 16,8 C 23,0 C 16,8 C 16,3 C 15,4 C 0,0 C 74 % 78 % 0 % 1019,6 hPa 0,0 l/m 0,0 km/h (0 Bft) N 360 0 min 12,1 C 15,4 C 0,0 km/h (0 Bft)
01.09.2016 22:00 16,6 C 23,0 C 16,7 C 16,2 C 15,3 C 0,0 C 74 % 77 % 0 % 1019,6 hPa 0,0 l/m 0,0 km/h (0 Bft) N 360 0 min 11,9 C 15,3 C 0,0 km/h (0 Bft)
01.09.2016 22:05 16,5 C 23,0 C 16,6 C 16,0 C 15,1 C 0,0 C 74 % 78 % 0 % 1020,3 hPa 0,0 l/m 0,0 km/h (0 Bft) N 360 0 min 11,8 C 15,1 C 0,0 km/h (0 Bft)
01.09.2016 22:15 16,2 C 23,1 C 16,4 C 15,8 C 15,0 C 0,0 C 75 % 78 % 0 % 1020,3 hPa 0,0 l/m 0,0 km/h (0 Bft) N 0 0 min 11,8 C 15,0 C 0,0 km/h (0 Bft)
01.09.2016 22:20 16,0 C 23,1 C 16,4 C 15,6 C 14,9 C 0,0 C 76 % 79 % 0 % 1020,3 hPa 0,0 l/m 0,0 km/h (0 Bft) O 90 0 min 11,8 C 14,9 C 0,0 km/h (0 Bft)
01.09.2016 22:25 15,8 C 23,1 C 16,2 C 15,5 C 14,9 C 0,0 C 76 % 79 % 0 % 1020,3 hPa 0,0 l/m 0,0 km/h (0 Bft) O 90 0 min 11,6 C 14,9 C 0,0 km/h (0 Bft)
01.09.2016 22:30 15,7 C 23,1 C 16,0 C 15,4 C 14,8 C 0,0 C 76 % 79 % 0 % 1020,3 hPa 0,0 l/m 0,0 km/h (0 Bft) O-NO 67 0 min 11,5 C 14,8 C 0,0 km/h (0 Bft)
01.09.2016 22:35 15,7 C 23,1 C 16,1 C 15,3 C 14,6 C 0,0 C 76 % 80 % 0 % 1020,3 hPa 0,0 l/m 0,0 km/h (0 Bft) O-NO 67 0 min 11,5 C 14,6 C 0,0 km/h (0 Bft)
01.09.2016 22:40 15,5 C 23,1 C 16,1 C 15,2 C 14,5 C 0,0 C 76 % 80 % 0 % 1020,3 hPa 0,0 l/m 0,0 km/h (0 Bft) O-NO 67 0 min 11,3 C 14,5 C 0,0 km/h (0 Bft)
01.09.2016 22:45 15,3 C 23,1 C 15,9 C 15,0 C 14,3 C 0,0 C 77 % 80 % 0 % 1020,2 hPa 0,0 l/m 0,0 km/h (0 Bft) O 90 0 min 11,3 C 14,3 C 0,0 km/h (0 Bft)
01.09.2016 22:50 15,2 C 23,1 C 15,9 C 14,8 C 14,1 C 0,0 C 77 % 80 % 0 % 1020,2 hPa 0,0 l/m 0,0 km/h (0 Bft) O 90 0 min 11,2 C 14,1 C 0,0 km/h (0 Bft)
01.09.2016 22:55 15,1 C 23,1 C 15,7 C 14,7 C 13,9 C 0,0 C 77 % 81 % 0 % 1020,2 hPa 0,0 l/m 0,0 km/h (0 Bft) O 90 0 min 11,1 C 13,9 C 0,0 km/h (0 Bft)
01.09.2016 23:00 14,9 C 23,2 C 15,6 C 14,6 C 13,9 C 0,0 C 78 % 81 % 0 % 1020,2 hPa 0,0 l/m 0,0 km/h (0 Bft) O 90 0 min 11,1 C 13,9 C 0,0 km/h (0 Bft)
01.09.2016 23:05 14,8 C 23,1 C 15,5 C 14,5 C 13,9 C 0,0 C 78 % 81 % 0 % 1020,0 hPa 0,0 l/m 0,0 km/h (0 Bft) O-NO 67 0 min 11,0 C 13,9 C 0,0 km/h (0 Bft)
01.09.2016 23:10 14,6 C 23,1 C 15,5 C 14,4 C 13,9 C 0,0 C 78 % 81 % 0 % 1020,0 hPa 0,0 l/m 0,0 km/h (0 Bft) O-NO 67 0 min 10,8 C 13,9 C 0,0 km/h (0 Bft)
01.09.2016 23:15 14,5 C 23,1 C 15,3 C 14,2 C 13,7 C 0,0 C 79 % 81 % 0 % 1020,0 hPa 0,0 l/m 0,0 km/h (0 Bft) O-NO 67 0 min 10,9 C 13,7 C 0,0 km/h (0 Bft)
01.09.2016 23:20 14,4 C 23,1 C 15,2 C 14,2 C 13,7 C 0,0 C 79 % 81 % 0 % 1020,0 hPa 0,0 l/m 0,0 km/h (0 Bft) O 90 0 min 10,8 C 13,7 C 0,0 km/h (0 Bft)
01.09.2016 23:25 14,3 C 23,1 C 15,2 C 14,1 C 13,6 C 0,0 C 79 % 82 % 0 % 1020,2 hPa 0,0 l/m 0,0 km/h (0 Bft) O 90 0 min 10,7 C 13,6 C 0,0 km/h (0 Bft)
01.09.2016 23:30 14,2 C 23,1 C 15,1 C 13,9 C 13,4 C 0,0 C 79 % 82 % 0 % 1020,2 hPa 0,0 l/m 0,0 km/h (0 Bft) O 90 0 min 10,6 C 13,4 C 0,0 km/h (0 Bft)
01.09.2016 23:35 14,0 C 23,1 C 15,0 C 13,8 C 13,3 C 0,0 C 79 % 82 % 0 % 1020,2 hPa 0,0 l/m 0,0 km/h (0 Bft) O 90 0 min 10,4 C 13,3 C 0,0 km/h (0 Bft)
01.09.2016 23:40 14,0 C 23,1 C 14,9 C 13,7 C 13,2 C 0,0 C 79 % 82 % 0 % 1020,2 hPa 0,0 l/m 0,0 km/h (0 Bft) O 90 0 min 10,4 C 13,2 C 0,0 km/h (0 Bft)
01.09.2016 23:45 13,9 C 23,1 C 14,9 C 13,6 C 13,0 C 0,0 C 79 % 83 % 0 % 1020,6 hPa 0,0 l/m 0,0 km/h (0 Bft) O 90 0 min 10,3 C 13,0 C 0,0 km/h (0 Bft)
01.09.2016 23:50 13,7 C 23,1 C 14,8 C 13,4 C 12,9 C 0,0 C 79 % 83 % 0 % 1020,6 hPa 0,0 l/m 0,0 km/h (0 Bft) O 90 0 min 10,1 C 12,9 C 0,0 km/h (0 Bft)
01.09.2016 23:55 13,6 C 23,1 C 14,7 C 13,4 C 12,9 C 0,0 C 80 % 83 % 0 % 1020,6 hPa 0,0 l/m 0,0 km/h (0 Bft) O 90 0 min 10,2 C 12,9 C 0,0 km/h (0 Bft)
_ Min-Zeit 06:25 10:20 06:25 06:30 06:30 00:00 15:50 17:20 00:00 21:45 - 00:00 - - - 05:35 06:30 00:00
Minimum _ 8,4 C 21,3 C 10,5 C 8,7 C 8,7 C 0,0 C 42 % 47 % 0 % 1019,6 hPa - 0,0 km/h (0 Bft) - - - 6,0 C 8,7 C 0,0 km/h (0 Bft)
_ Max-Zeit 15:35 23:00 17:15 15:25 15:25 08:30 07:30 06:45 07:25 10:25 00:00 16:12 - - 08:20 15:30 15:25 10:12
Maximum _ 28,4 C 23,2 C 27,5 C 34,7 C 34,7 C 10,4 C 88 % 87 % 100 % 1021,6 hPa 0,0 l/m 2,4 km/h
N (1 Bft)
- - 8 min 14,9 C 34,7 C 8,4 km/h
N (2 Bft)
Durchschnitt _ 18,1 C 22,2 C 17,9 C 20,0 C 19,8 C 2,0 C 66 % 71 % 41 % 1020,4 hPa #0,0 l/m 0,4 km/h (0 Bft) SW - #7:35 h 11,0 C 19,8 C 0,7 km/h (0 Bft)
2016 www.wetterstation-wechselburg.de